When you browse on this site, cookies collect data to enhance your experience and personalize the content and advertising you see.
Visit our Privacy Policy to learn more. By continuing to use the site, you agree to this use of cookies and data.
  • In Slovakia
  • List of Countries
  • For 7 days
  • Water Temperature
  • Weather Map
  • Weather Widgets
  • user-avatar
    Login

    Hourly Weather Heidelberg

    Today, 14 October, Monday

    Time Temperature Precipitation Wind Pressure Humidity
    00:00 +18°C° 0 mm 1 mps 742 mmHg 83%
    01:00 +18°C° 0 mm 1 mps 743 mmHg 84%
    02:00 +16°C° 0 mm 1 mps 742 mmHg 84%
    03:00 +16°C° 0 mm 1 mps 742 mmHg 84%
    04:00 +16°C° 0 mm 1 mps 742 mmHg 84%
    05:00 +15°C° 0 mm 1 mps 742 mmHg 84%
    06:00 +15°C° 0 mm 1 mps 742 mmHg 84%
    07:00 +15°C° 0 mm 1 mps 742 mmHg 84%
    08:00 +16°C° 0 mm 1 mps 742 mmHg 78%
    09:00 +19°C° 0 mm 1 mps 742 mmHg 72%
    10:00 +21°C° 0 mm 1 mps 742 mmHg 65%
    11:00 +21°C° 0 mm 2 mps 742 mmHg 61%
    12:00 +23°C° 0 mm 2 mps 741 mmHg 57%
    13:00 +24°C° 0 mm 2 mps 741 mmHg 53%
    14:00 +24°C° 0 mm 2 mps 741 mmHg 54%
    15:00 +24°C° 0 mm 2 mps 740 mmHg 56%
    16:00 +24°C° 0 mm 2 mps 740 mmHg 58%
    17:00 +23°C° 0 mm 2 mps 740 mmHg 64%
    18:00 +20°C° 0 mm 2 mps 739 mmHg 69%
    19:00 +20°C° 0 mm 1 mps 739 mmHg 75%
    20:00 +19°C° 0 mm 1 mps 739 mmHg 76%
    21:00 +19°C° 0 mm 1 mps 739 mmHg 77%
    22:00 +18°C° 0 mm 1 mps 739 mmHg 77%
    23:00 +18°C° 0 mm 1 mps 739 mmHg 78%

    Tomorrow, 15 October, Tuesday

    Time Temperature Precipitation Wind Pressure Humidity
    00:00 +16°C° 0 mm 1 mps 739 mmHg 79%
    01:00 +16°C° 0 mm 1 mps 739 mmHg 80%
    02:00 +16°C° 0 mm 1 mps 738 mmHg 80%
    03:00 +16°C° 0 mm 1 mps 738 mmHg 80%
    04:00 +16°C° 0 mm 1 mps 738 mmHg 80%
    05:00 +16°C° 0 mm 1 mps 737 mmHg 81%
    06:00 +15°C° 0 mm 1 mps 737 mmHg 83%
    07:00 +15°C° 0 mm 1 mps 736 mmHg 84%
    08:00 +16°C° 0 mm 2 mps 736 mmHg 79%
    09:00 +18°C° 0 mm 2 mps 735 mmHg 73%
    10:00 +19°C° 0 mm 2 mps 735 mmHg 67%
    11:00 +21°C° 0 mm 2 mps 735 mmHg 62%
    12:00 +23°C° 0 mm 2 mps 735 mmHg 58%
    13:00 +25°C° 0 mm 2 mps 734 mmHg 53%
    14:00 +24°C° 0 mm 3 mps 734 mmHg 57%
    15:00 +22°C° 0 mm 4 mps 734 mmHg 61%
    16:00 +21°C° 0 mm 5 mps 734 mmHg 64%
    17:00 +19°C° 0.1 mm 6 mps 735 mmHg 68%
    18:00 +16°C° 0.1 mm 7 mps 736 mmHg 72%
    19:00 +13°C° 0.1 mm 8 mps 738 mmHg 75%
    20:00 +12°C° 0.3 mm 7 mps 738 mmHg 77%
    21:00 +12°C° 0.3 mm 7 mps 739 mmHg 78%
    22:00 +11°C° 0.3 mm 6 mps 740 mmHg 80%
    23:00 +11°C° 0 mm 6 mps 740 mmHg 79%

    Day after tomorrow, 16 October, Wednesday

    Time Temperature Precipitation Wind Pressure Humidity
    00:00 +11°C° 0 mm 6 mps 741 mmHg 78%
    01:00 +10°C° 0 mm 5 mps 741 mmHg 77%
    02:00 +10°C° 0 mm 5 mps 741 mmHg 78%
    03:00 +11°C° 0 mm 4 mps 741 mmHg 79%
    04:00 +10°C° 0 mm 4 mps 742 mmHg 80%
    05:00 +10°C° 0 mm 4 mps 742 mmHg 80%
    06:00 +10°C° 0 mm 4 mps 742 mmHg 81%
    07:00 +10°C° 0 mm 4 mps 742 mmHg 81%
    08:00 +11°C° 0 mm 4 mps 742 mmHg 77%
    09:00 +12°C° 0 mm 4 mps 742 mmHg 73%
    10:00 +12°C° 0 mm 4 mps 742 mmHg 69%
    11:00 +14°C° 0 mm 5 mps 742 mmHg 65%
    12:00 +15°C° 0 mm 5 mps 742 mmHg 61%
    13:00 +16°C° 0 mm 5 mps 742 mmHg 57%
    14:00 +17°C° 0 mm 4 mps 741 mmHg 58%
    15:00 +17°C° 0 mm 3 mps 741 mmHg 59%
    16:00 +17°C° 0 mm 3 mps 741 mmHg 59%
    17:00 +16°C° 0 mm 2 mps 741 mmHg 63%
    18:00 +15°C° 0 mm 2 mps 741 mmHg 67%
    19:00 +13°C° 0 mm 2 mps 741 mmHg 71%
    20:00 +13°C° 0 mm 2 mps 741 mmHg 72%
    21:00 +13°C° 0 mm 2 mps 741 mmHg 74%
    22:00 +12°C° 0 mm 2 mps 742 mmHg 75%
    23:00 +12°C° 0 mm 2 mps 742 mmHg 74%

    17 October, Thursday

    Time Temperature Precipitation Wind Pressure Humidity
    00:00 +12°C° 0 mm 2 mps 742 mmHg 73%
    01:00 +12°C° 0 mm 2 mps 742 mmHg 72%
    02:00 +12°C° 0 mm 2 mps 742 mmHg 70%
    03:00 +12°C° 0 mm 2 mps 742 mmHg 68%
    04:00 +12°C° 0 mm 2 mps 742 mmHg 66%
    05:00 +12°C° 0 mm 2 mps 742 mmHg 65%
    06:00 +12°C° 0 mm 2 mps 742 mmHg 63%
    07:00 +13°C° 0 mm 2 mps 742 mmHg 61%
    08:00 +14°C° 0 mm 2 mps 742 mmHg 60%
    09:00 +14°C° 0 mm 2 mps 742 mmHg 59%
    10:00 +15°C° 0 mm 2 mps 742 mmHg 57%
    11:00 +16°C° 0 mm 3 mps 743 mmHg 56%
    12:00 +17°C° 0 mm 3 mps 743 mmHg 55%
    13:00 +18°C° 0 mm 4 mps 743 mmHg 54%
    14:00 +18°C° 0 mm 4 mps 743 mmHg 59%
    15:00 +17°C° 0 mm 4 mps 743 mmHg 64%
    16:00 +16°C° 0 mm 3 mps 743 mmHg 69%
    17:00 +16°C° 0 mm 3 mps 743 mmHg 73%
    18:00 +15°C° 0 mm 2 mps 744 mmHg 76%
    19:00 +14°C° 0 mm 2 mps 744 mmHg 80%
    20:00 +14°C° 0 mm 1 mps 744 mmHg 82%
    21:00 +13°C° 0 mm 1 mps 744 mmHg 84%
    22:00 +12°C° 0 mm 0 mps 745 mmHg 86%
    23:00 +12°C° 0 mm 0 mps 745 mmHg 86%

    18 October, Friday

    Time Temperature Precipitation Wind Pressure Humidity
    00:00 +12°C° 0 mm 0 mps 744 mmHg 86%
    01:00 +12°C° 0 mm 0 mps 744 mmHg 86%
    02:00 +12°C° 0 mm 0 mps 744 mmHg 86%
    03:00 +12°C° 0 mm 0 mps 744 mmHg 86%
    04:00 +12°C° 0 mm 0 mps 744 mmHg 86%
    05:00 +12°C° 0.5 mm 0 mps 744 mmHg 88%
    06:00 +12°C° 0.5 mm 0 mps 744 mmHg 90%
    07:00 +13°C° 0.5 mm 1 mps 744 mmHg 92%
    08:00 +13°C° 0.1 mm 1 mps 744 mmHg 91%
    09:00 +13°C° 0.1 mm 1 mps 744 mmHg 90%
    10:00 +14°C° 0.1 mm 1 mps 744 mmHg 88%
    11:00 +15°C° 0.1 mm 1 mps 744 mmHg 84%
    12:00 +16°C° 0.1 mm 2 mps 744 mmHg 80%
    13:00 +17°C° 0.1 mm 2 mps 744 mmHg 76%
    14:00 +18°C° 0.2 mm 1 mps 744 mmHg 77%
    15:00 +18°C° 0.2 mm 1 mps 744 mmHg 78%
    16:00 +18°C° 0.2 mm 1 mps 743 mmHg 79%
    17:00 +16°C° 0.1 mm 1 mps 744 mmHg 82%
    18:00 +15°C° 0.1 mm 1 mps 744 mmHg 84%
    19:00 +13°C° 0.1 mm 0 mps 744 mmHg 87%
    20:00 +13°C° 0 mm 0 mps 744 mmHg 88%
    21:00 +12°C° 0 mm 0 mps 744 mmHg 88%
    22:00 +13°C° 0 mm 1 mps 744 mmHg 89%
    23:00 +13°C° 0 mm 1 mps 743 mmHg 90%

    19 October, Saturday

    Time Temperature Precipitation Wind Pressure Humidity
    00:00 +12°C° 0 mm 1 mps 743 mmHg 90%
    01:00 +12°C° 0 mm 1 mps 743 mmHg 91%
    02:00 +12°C° 0 mm 1 mps 743 mmHg 91%
    03:00 +12°C° 0 mm 1 mps 742 mmHg 91%
    04:00 +12°C° 0 mm 1 mps 742 mmHg 91%
    05:00 +12°C° 0 mm 1 mps 742 mmHg 91%
    06:00 +12°C° 0 mm 1 mps 742 mmHg 91%
    07:00 +12°C° 0 mm 1 mps 741 mmHg 91%
    08:00 +13°C° 0 mm 1 mps 741 mmHg 87%
    09:00 +14°C° 0 mm 1 mps 741 mmHg 83%
    10:00 +15°C° 0 mm 1 mps 741 mmHg 79%
    11:00 +16°C° 0 mm 1 mps 740 mmHg 75%
    12:00 +18°C° 0 mm 1 mps 740 mmHg 71%
    13:00 +18°C° 0 mm 1 mps 740 mmHg 67%
    14:00 +17°C° 0.2 mm 2 mps 739 mmHg 72%
    15:00 +16°C° 0.2 mm 2 mps 739 mmHg 76%
    16:00 +16°C° 0.2 mm 3 mps 739 mmHg 80%
    17:00 +15°C° 0.1 mm 2 mps 739 mmHg 82%
    18:00 +14°C° 0.1 mm 1 mps 739 mmHg 85%
    19:00 +13°C° 0.1 mm 1 mps 739 mmHg 87%
    20:00 +13°C° 0.2 mm 1 mps 739 mmHg 88%
    21:00 +13°C° 0.2 mm 2 mps 739 mmHg 89%
    22:00 +13°C° 0.2 mm 2 mps 739 mmHg 89%
    23:00 +13°C° 0.2 mm 2 mps 738 mmHg 90%
    Show more